Home > Weather > Petersburg > Past weeks

Flag for USA Past Weather in Petersburg, Indiana, USA — Yesterday and Last 2 Weeks

Now
72 °F

Clear.


Feels Like: 69 °F
Forecast: 73 / 91 °F
Wind: No wind

Location: Huntingburg Airport

Current Time: Jul 23, 2016 at 7:10:17 AM

Latest Report: Jul 23, 2016 at 6:35 AM


Visibility: 2 mi

Pressure: 30.01 "Hg

Humidity: 88%

Dew Point: 68 °F

Location of PetersburgLocation

Past Weather in Petersburg — Graph

°F

Petersburg Temperature Yesterday

Maximum temperature yesterday: 86 °F (at 4:35 PM)
Minimum temperature yesterday: 73 °F (at 8:35 AM)
Average temperature yesterday: 79 °F

High & Low Weather Summary for the Past Weeks

 TemperatureHumidityPressure
High91 °F (Jul 19, 6:35 PM)94% (Jul 10, 6:15 AM)30.28 "Hg (Jul 10, 6:15 AM)
Low63 °F (Jul 10, 6:15 AM)46% (Jul 11, 4:15 PM)29.81 "Hg (Jul 8, 10:15 AM)
Average77 °F77%30.06 "Hg
* Reported Jul 8 6:15 AM — Jul 23 6:15 AM, Petersburg, Weather by CustomWeather, © 2016

Note: Actual official high and low records may vary slightly from our data, if they occured in-between our weather recording intervals... More about our weather records

Advertising

Petersburg Weather History for the Previous 24 Hours

Scroll right to see more
 ConditionsComfort  
Time TempWeatherWind HumidityBarometerVisibility
6:15 AM
Sat, Jul 23
72 °FClear.No wind88%30.01 "Hg3 mi
5:55 AM72 °FClear.No wind88%30.01 "Hg5 mi
5:35 AM72 °FClear.No wind88%30.01 "Hg5 mi
5:15 AM72 °FClear.No wind88%30.01 "Hg8 mi
4:55 AM72 °FClear.No wind88%30.01 "Hg8 mi
4:35 AM72 °FClear.3 mph88%30.01 "Hg5 mi
4:15 AM72 °FClear.3 mph88%30.00 "Hg3 mi
3:55 AM72 °FClear.No wind94%30.00 "Hg5 mi
3:35 AM73 °FClear.No wind89%30.00 "Hg2 mi
3:15 AM73 °FClear.No wind89%30.00 "Hg3 mi
2:55 AM73 °FPassing clouds.No wind89%30.01 "Hg1 mi
2:35 AM73 °FPassing clouds.No wind89%30.01 "Hg1 mi
2:15 AM73 °FClear.No wind89%30.01 "Hg8 mi
1:55 AM75 °FClear.No wind89%30.01 "Hg7 mi
1:35 AM75 °FClear.No wind89%30.01 "Hg7 mi
1:15 AM75 °FClear.3 mph89%30.02 "Hg5 mi
12:55 AM75 °FClear.No wind89%30.01 "Hg7 mi
12:35 AM75 °FClear.No wind89%30.02 "Hg9 mi
12:15 AM75 °FClear.3 mph89%30.02 "Hg7 mi
11:55 PM
Fri, Jul 22
75 °FClear.3 mph89%30.03 "Hg8 mi
11:35 PM75 °FClear.No wind89%30.04 "Hg7 mi
11:15 PM75 °FClear.3 mph89%30.04 "Hg9 mi
10:55 PM77 °FClear.No wind83%30.04 "Hg10 mi
10:35 PM77 °FClear.No wind89%30.03 "Hg10 mi
10:15 PM77 °FClear.No wind89%30.02 "Hg10 mi
9:55 PM77 °FSunny.No wind89%30.02 "Hg10 mi
9:15 PM81 °FSunny.No wind79%30.01 "Hg10 mi
8:55 PM81 °FSunny.No wind79%30.00 "Hg10 mi
8:35 PM82 °FSunny.No wind74%30.00 "Hg10 mi
8:15 PM82 °FPassing clouds.No wind74%29.99 "Hg10 mi
7:55 PM84 °FPartly sunny.No wind70%29.99 "Hg10 mi
7:35 PM84 °FPartly sunny.3 mph70%30.00 "Hg10 mi
7:15 PM84 °FScattered clouds.No wind70%30.00 "Hg10 mi
6:55 PM84 °FSunny.No wind70%30.00 "Hg10 mi
6:35 PM84 °FPartly sunny.No wind70%30.00 "Hg10 mi
6:15 PM84 °FPartly sunny.No wind70%30.01 "Hg10 mi
5:55 PM84 °FSunny.5 mph70%30.01 "Hg10 mi
5:35 PM84 °FSunny.No wind70%30.01 "Hg10 mi
5:15 PM84 °FSunny.3 mph70%30.02 "Hg10 mi
4:55 PM84 °FSunny.No wind70%30.02 "Hg10 mi
4:35 PM86 °FSunny.3 mph66%30.03 "Hg10 mi
4:15 PM84 °FPassing clouds.3 mph70%30.05 "Hg10 mi
3:55 PM82 °FSunny.3 mph74%30.05 "Hg10 mi
3:35 PM82 °FSunny.5 mph74%30.05 "Hg10 mi
3:15 PM82 °FSunny.No wind74%30.05 "Hg10 mi
2:55 PM82 °FSunny.3 mph74%30.05 "Hg10 mi
2:35 PM81 °FSunny.6 mph79%30.05 "Hg10 mi
2:15 PM81 °FPassing clouds.7 mph79%30.06 "Hg10 mi
1:55 PM81 °FPassing clouds.5 mph79%30.07 "Hg10 mi
1:35 PM81 °FPassing clouds.No wind74%30.08 "Hg10 mi
1:15 PM79 °FPartly sunny.No wind79%30.08 "Hg10 mi
12:55 PM79 °FPartly sunny.No wind79%30.08 "Hg10 mi
12:15 PM75 °FPassing clouds.8 mph89%30.06 "Hg10 mi
11:55 AM75 °FScattered clouds.7 mph89%30.06 "Hg9 mi
11:35 AM75 °FPassing clouds.12 mph89%30.05 "Hg10 mi
11:15 AM75 °FSunny.13 mph89%30.05 "Hg10 mi
10:55 AM75 °FSunny.12 mph89%30.04 "Hg10 mi
10:35 AM75 °FScattered clouds.6 mph89%30.02 "Hg10 mi
10:15 AM75 °FMore clouds than sun.3 mph83%30.03 "Hg10 mi
9:55 AM73 °FOvercast.5 mph89%30.05 "Hg10 mi
9:35 AM73 °FOvercast.7 mph89%30.07 "Hg10 mi
9:15 AM73 °FThundershowers. Overcast.7 mph89%30.08 "Hg10 mi
8:55 AM73 °FThunderstorms. More clouds than sun.10 mph89%30.09 "Hg4 mi
8:35 AM73 °FThunderstorms. Mostly cloudy.7 mph83%30.11 "Hg3 mi
8:15 AM75 °FThundershowers. More clouds than sun.10 mph83%30.11 "Hg10 mi
7:55 AM77 °FThundershowers. Broken clouds.13 mph83%30.09 "Hg3 mi
7:35 AM77 °FClear.No wind83%30.07 "Hg4 mi
7:15 AM77 °FClear.No wind83%30.06 "Hg4 mi
Weather by CustomWeather, © 2016

See weather overviewHow to use our weather pages